Waycross, GA

3:04 PM EDT on May 29, 2017 (GMT -0400)
Waycross-Ware County

Weather History for KAYS - November, 2012

Change the Weather History Date:

Saturday, November 17, 2012

  Actual Average (KAMG) Record (KAMG)
Temperature  
Mean Temperature 55 °F -  
Max Temperature 64 °F 70 °F 89 °F (1957)
Min Temperature 46 °F 48 °F 25 °F (1970)
Degree Days  
Heating Degree Days 10    
Growing Degree Days 5 (Base 50)    
Moisture  
Dew Point 44 °F    
Average Humidity 74    
Maximum Humidity 93    
Minimum Humidity 52    
Precipitation  
Precipitation 0.00 in - - ()
Sea Level Pressure  
Sea Level Pressure 30.27 in    
Wind  
Wind Speed 7 mph (NNE)    
Max Wind Speed 12 mph    
Max Gust Speed 16 mph    
Visibility 10 miles    
Events      
Averages and records for this station are not official NWS values.
T = Trace of Precipitation, MM = Missing Value Source: NWS Daily Summary

Daily Weather History Graph

Daily Weather History Graph

Search for Another Location

Airport or City:

Trip Planner

Search our weather history database for the weather conditions in past years. The results will help you decide how hot, cold, wet, or windy it might be!

Date:

Astronomy

Nov. 17, 2012 Rise Set
Actual Time 6:59 AM EST 5:30 PM EST
Civil Twilight 6:33 AM EST 5:55 PM EST
Nautical Twilight 6:03 AM EST 6:25 PM EST
Astronomical Twilight 5:34 AM EST 6:54 PM EST
Moon 10:42 AM EST (11/17) 9:37 PM EST (11/17)
Length of Visible Light 11h 22m
Length of Day
10h 30m
Waxing Crescent, 20% of the Moon is Illuminated
Nov 17
Waxing Crescent
Nov 20
First Quarter
Nov 28
Full
Dec 6
Last Quarter
Dec 13
New

Hourly Weather History & Observations

Time (EST) Temp. Windchill Dew Point Humidity Pressure Visibility Wind Dir Wind Speed Gust Speed Precip Events Conditions
12:15 AM 48.2 °F - 46.4 °F 93% 30.24 in 10.0 mi NNE 5.8 mph - N/A   Scattered Clouds
12:35 AM 48.2 °F - 46.4 °F 93% 30.24 in 1.0 mi NE 5.8 mph - N/A   Clear
12:55 AM 48.2 °F - 46.4 °F 93% 30.24 in 10.0 mi NNE 3.5 mph - N/A   Clear
1:15 AM 48.2 °F - 46.4 °F 93% 30.24 in 10.0 mi NNE 6.9 mph - N/A   Mostly Cloudy
1:35 AM 48.2 °F - 46.4 °F 93% 30.24 in 10.0 mi NE 4.6 mph - N/A   Mostly Cloudy
1:55 AM 48.2 °F - 46.4 °F 93% 30.25 in 10.0 mi NE 4.6 mph - N/A   Mostly Cloudy
2:15 AM 48.2 °F - 46.4 °F 93% 30.25 in 10.0 mi NNE 4.6 mph - N/A   Overcast
2:35 AM 48.2 °F - 46.4 °F 93% 30.25 in 10.0 mi NNE 4.6 mph - N/A   Overcast
2:55 AM 48.2 °F - 44.6 °F 87% 30.24 in 10.0 mi NNE 9.2 mph - N/A   Overcast
3:15 AM 48.2 °F - 44.6 °F 87% 30.24 in 10.0 mi NNE 6.9 mph - N/A   Overcast
3:35 AM 48.2 °F - 44.6 °F 87% 30.23 in 10.0 mi NNE 5.8 mph - N/A   Overcast
3:55 AM 48.2 °F - 44.6 °F 87% 30.23 in 10.0 mi NNE 6.9 mph - N/A   Overcast
4:15 AM 48.2 °F - 44.6 °F 87% 30.23 in 10.0 mi ENE 8.1 mph - N/A   Overcast
4:35 AM 48.2 °F - 44.6 °F 87% 30.24 in 10.0 mi NE 5.8 mph - N/A   Mostly Cloudy
4:55 AM 48.2 °F - 44.6 °F 87% 30.24 in 10.0 mi NE 8.1 mph - N/A   Mostly Cloudy
5:15 AM 48.2 °F - 44.6 °F 87% 30.24 in 10.0 mi NE 5.8 mph - N/A   Overcast
5:35 AM 48.2 °F - 42.8 °F 82% 30.25 in 10.0 mi NNE 8.1 mph - N/A   Overcast
5:55 AM 48.2 °F - 42.8 °F 82% 30.25 in 10.0 mi NE 10.4 mph - N/A   Overcast
6:15 AM 48.2 °F - 42.8 °F 82% 30.26 in 10.0 mi NNE 8.1 mph - N/A   Overcast
6:35 AM 48.2 °F - 42.8 °F 82% 30.26 in 10.0 mi NE 5.8 mph - N/A   Overcast
6:55 AM 48.2 °F - 42.8 °F 82% 30.27 in 10.0 mi NNE 6.9 mph - N/A   Overcast
7:15 AM 48.2 °F - 42.8 °F 82% 30.27 in 10.0 mi North - - N/A   Overcast
7:55 AM 46.4 °F 42.4 °F 42.8 °F 87% 30.28 in 10.0 mi NE 8.1 mph - N/A   Overcast
8:15 AM 46.4 °F 42.4 °F 42.8 °F 87% 30.29 in 10.0 mi NE 8.1 mph - N/A   Unknown
8:35 AM 46.4 °F 42.9 °F 42.8 °F 87% 30.30 in 10.0 mi NNE 6.9 mph - N/A   Unknown
8:55 AM 48.2 °F - 42.8 °F 82% 30.30 in 10.0 mi NE 11.5 mph - N/A   Unknown
9:15 AM 48.2 °F - 42.8 °F 82% 30.31 in 10.0 mi NNE 8.1 mph - N/A   Unknown
9:35 AM 51.8 °F - 44.6 °F 76% 30.31 in 10.0 mi NNE 10.4 mph - N/A   Mostly Cloudy
9:55 AM 51.8 °F - 44.6 °F 76% 30.31 in 10.0 mi NE 8.1 mph - N/A   Clear
10:15 AM 53.6 °F - 44.6 °F 72% 30.31 in 10.0 mi NE 6.9 mph - N/A   Clear
10:35 AM 53.6 °F - 42.8 °F 67% 30.31 in 10.0 mi NE 8.1 mph - N/A   Clear
10:55 AM 55.4 °F - 44.6 °F 67% 30.30 in 10.0 mi NNE 8.1 mph - N/A   Scattered Clouds
11:15 AM 55.4 °F - 44.6 °F 67% 30.30 in 10.0 mi NE 10.4 mph - N/A   Mostly Cloudy
11:35 AM 57.2 °F - 44.6 °F 63% 30.29 in 10.0 mi NE 9.2 mph - N/A   Mostly Cloudy
12:55 PM 62.6 °F - 46.4 °F 55% 30.26 in 10.0 mi ENE 10.4 mph 16.1 mph N/A   Clear
1:15 PM 62.6 °F - 46.4 °F 55% 30.25 in 10.0 mi NNE 6.9 mph - N/A   Clear
1:35 PM 62.6 °F - 46.4 °F 55% 30.25 in 10.0 mi NE 11.5 mph - N/A   Clear
1:55 PM 64.4 °F - 46.4 °F 52% 30.24 in 10.0 mi NE 9.2 mph - N/A   Clear
2:15 PM 62.6 °F - 46.4 °F 55% 30.23 in 10.0 mi North - - N/A   Mostly Cloudy
2:35 PM 62.6 °F - 46.4 °F 55% 30.23 in 10.0 mi NNW 6.9 mph - N/A   Scattered Clouds
2:55 PM 64.4 °F - 46.4 °F 52% 30.23 in 10.0 mi North 9.2 mph - N/A   Clear
3:15 PM 64.4 °F - 46.4 °F 52% 30.23 in 10.0 mi NNE 10.4 mph - N/A   Clear
3:35 PM 64.4 °F - 46.4 °F 52% 30.24 in 10.0 mi North 10.4 mph 16.1 mph N/A   Clear
3:55 PM 64.4 °F - 46.4 °F 52% 30.24 in 10.0 mi NE 10.4 mph - N/A   Clear
4:15 PM 62.6 °F - 46.4 °F 55% 30.24 in 10.0 mi ENE 9.2 mph - N/A   Clear
4:35 PM 62.6 °F - 46.4 °F 55% 30.24 in 10.0 mi NNE 10.4 mph - N/A   Scattered Clouds
4:55 PM 60.8 °F - 46.4 °F 59% 30.24 in 10.0 mi NNE 9.2 mph - N/A   Scattered Clouds
5:35 PM 57.2 °F - 46.4 °F 67% 30.25 in 10.0 mi NNE 8.1 mph - N/A   Mostly Cloudy
5:55 PM 57.2 °F - 46.4 °F 67% 30.26 in 10.0 mi NNE 6.9 mph - N/A   Scattered Clouds
6:15 PM 57.2 °F - 44.6 °F 63% 30.27 in 10.0 mi NNE 5.8 mph - N/A   Scattered Clouds
6:35 PM 55.4 °F - 44.6 °F 67% 30.27 in 10.0 mi NNE 4.6 mph - N/A   Overcast
6:55 PM 55.4 °F - 44.6 °F 67% 30.28 in 10.0 mi Calm Calm - N/A   Overcast
7:15 PM 55.4 °F - 44.6 °F 67% 30.28 in 10.0 mi ENE 9.2 mph - N/A   Overcast
7:35 PM 55.4 °F - 44.6 °F 67% 30.30 in 10.0 mi ENE 9.2 mph - N/A   Mostly Cloudy
7:55 PM 53.6 °F - 44.6 °F 72% 30.30 in 10.0 mi NE 5.8 mph - N/A   Scattered Clouds
8:15 PM 53.6 °F - 42.8 °F 67% 30.31 in 10.0 mi NE 5.8 mph - N/A   Clear
8:35 PM 53.6 °F - 42.8 °F 67% 30.31 in 10.0 mi Calm Calm - N/A   Scattered Clouds
8:55 PM 51.8 °F - 41.0 °F 67% 30.30 in 10.0 mi NNE 9.2 mph - N/A   Scattered Clouds
9:15 PM 51.8 °F - 41.0 °F 67% 30.30 in 10.0 mi NE 5.8 mph - N/A   Scattered Clouds
9:35 PM 51.8 °F - 41.0 °F 67% 30.30 in 10.0 mi NNE 6.9 mph - N/A   Mostly Cloudy
9:55 PM 50.0 °F - 41.0 °F 71% 30.30 in 10.0 mi NNE 4.6 mph - N/A   Scattered Clouds
10:15 PM 50.0 °F - 41.0 °F 71% 30.30 in 10.0 mi NNE 3.5 mph - N/A   Clear
10:35 PM 48.2 °F - 42.8 °F 82% 30.29 in 10.0 mi NNE 3.5 mph - N/A   Scattered Clouds
10:55 PM 48.2 °F - 42.8 °F 82% 30.29 in 10.0 mi North 3.5 mph - N/A   Mostly Cloudy
11:15 PM 46.4 °F 44.3 °F 42.8 °F 87% 30.29 in 10.0 mi North 4.6 mph - N/A   Mostly Cloudy
11:35 PM 46.4 °F - 42.8 °F 87% 30.28 in 10.0 mi Calm Calm - N/A   Mostly Cloudy
11:55 PM 46.4 °F 45.2 °F 42.8 °F 87% 30.28 in 10.0 mi North 3.5 mph - N/A   Overcast